| time (UTC) | temp C | wind direction | speed KPH | gust KPH | rain 1hr cm | rain 24hr cm | rain mn cm | humidity % | barometer mb |
| 20260510120557 | 15 | 0 | 0.0 | 1.6 | 0.00 | 0.00 | 0.00 | 83 | 1015.5 |
| 20260510120057 | 14 | 0 | 0.0 | 0.0 | 0.00 | 0.00 | 0.00 | 84 | 1015.5 |
| 20260510115556 | 14 | 0 | 0.0 | 4.8 | 0.00 | 0.00 | 0.00 | 84 | 1015.5 |
| 20260510115056 | 14 | 0 | 0.0 | 6.4 | 0.00 | 0.00 | 0.00 | 84 | 1015.4 |
| 20260510114554 | 14 | 172 | 1.6 | 6.4 | 0.00 | 0.00 | 0.00 | 84 | 1015.5 |
| 20260510114058 | 14 | 167 | 3.2 | 6.4 | 0.00 | 0.00 | 0.00 | 83 | 1015.4 |
| 20260510113556 | 15 | 0 | 0.0 | 0.0 | 0.00 | 0.00 | 0.00 | 82 | 1015.5 |
| 20260510113057 | 15 | 0 | 0.0 | 0.0 | 0.00 | 0.00 | 0.00 | 81 | 1015.4 |
| 20260510112556 | 15 | 0 | 0.0 | 0.0 | 0.00 | 0.00 | 0.00 | 81 | 1015.4 |
| 20260510112057 | 15 | 0 | 0.0 | 0.0 | 0.00 | 0.00 | 0.00 | 81 | 1015.3 |
| 20260510111556 | 15 | 0 | 0.0 | 0.0 | 0.00 | 0.00 | 0.00 | 80 | 1015.3 |
| 20260510111057 | 15 | 0 | 0.0 | 0.0 | 0.00 | 0.00 | 0.00 | 80 | 1015.2 |
| 20260510110556 | 15 | 0 | 0.0 | 0.0 | 0.00 | 0.00 | 0.00 | 80 | 1015.1 |
| 20260510110054 | 15 | 0 | 0.0 | 0.0 | 0.00 | 0.00 | 0.00 | 79 | 1015.1 |
| 20260510105600 | 15 | 0 | 0.0 | 0.0 | 0.00 | 0.00 | 0.00 | 79 | 1015.1 |
| 20260510105056 | 15 | 0 | 0.0 | 0.0 | 0.00 | 0.00 | 0.00 | 79 | 1015.2 |
| 20260510104555 | 15 | 0 | 0.0 | 1.6 | 0.00 | 0.00 | 0.00 | 79 | 1015.1 |
| 20260510104058 | 15 | 0 | 0.0 | 1.6 | 0.00 | 0.00 | 0.00 | 79 | 1015.1 |
| 20260510103558 | 15 | 0 | 0.0 | 4.8 | 0.00 | 0.00 | 0.00 | 79 | 1015.1 |
| 20260510103110 | 15 | 0 | 1.6 | 4.8 | 0.00 | 0.00 | 0.00 | 79 | 1015.1 |
| 20260510102556 | 16 | 282 | 1.6 | 3.2 | 0.00 | 0.00 | 0.00 | 76 | 1015.1 |
| 20260510102059 | 16 | 0 | 0.0 | 4.8 | 0.00 | 0.00 | 0.00 | 74 | 1014.9 |
| 20260510101608 | 17 | 0 | 0.0 | 4.8 | 0.00 | 0.00 | 0.00 | 72 | 1014.9 |
| 20260510101056 | 17 | 130 | 0.0 | 4.8 | 0.00 | 0.00 | 0.00 | 71 | 1014.7 |
| 20260510100556 | 17 | 315 | 1.6 | 4.8 | 0.00 | 0.00 | 0.00 | 70 | 1014.6 |
| 20260510100109 | 17 | 315 | 3.2 | 6.4 | 0.00 | 0.00 | 0.00 | 70 | 1014.5 |
| 20260510095556 | 17 | 0 | 0.0 | 12.9 | 0.00 | 0.00 | 0.00 | 69 | 1014.4 |
| 20260510095055 | 17 | 332 | 6.4 | 12.9 | 0.00 | 0.00 | 0.00 | 69 | 1014.4 |
| 20260510094558 | 17 | 348 | 4.8 | 9.7 | 0.00 | 0.00 | 0.00 | 69 | 1014.3 |
| 20260510094057 | 16 | 355 | 4.8 | 9.7 | 0.00 | 0.00 | 0.00 | 71 | 1014.2 |
| 20260510093556 | 16 | 339 | 1.6 | 4.8 | 0.00 | 0.00 | 0.00 | 72 | 1014.0 |
| 20260510093054 | 16 | 340 | 1.6 | 4.8 | 0.00 | 0.00 | 0.00 | 71 | 1014.1 |
| 20260510092557 | 17 | 340 | 1.6 | 12.9 | 0.00 | 0.00 | 0.00 | 70 | 1014.0 |
| 20260510092055 | 17 | 0 | 1.6 | 12.9 | 0.00 | 0.00 | 0.00 | 70 | 1013.9 |
| 20260510091557 | 17 | 355 | 8.0 | 12.9 | 0.00 | 0.00 | 0.00 | 70 | 1014.0 |
| 20260510091056 | 16 | 12 | 1.6 | 8.0 | 0.00 | 0.00 | 0.00 | 72 | 1014.0 |
| 20260510090558 | 16 | 355 | 0.0 | 8.0 | 0.00 | 0.00 | 0.00 | 72 | 1013.9 |
| 20260510090110 | 17 | 180 | 4.8 | 9.7 | 0.00 | 0.00 | 0.00 | 71 | 1014.0 |
| 20260510085556 | 17 | 360 | 3.2 | 12.9 | 0.00 | 0.00 | 0.00 | 70 | 1014.1 |
| 20260510085056 | 16 | 348 | 6.4 | 12.9 | 0.00 | 0.00 | 0.00 | 70 | 1014.2 |
| 20260510084558 | 16 | 9 | 6.4 | 12.9 | 0.00 | 0.00 | 0.00 | 71 | 1014.4 |
| 20260510084057 | 16 | 344 | 6.4 | 8.0 | 0.00 | 0.00 | 0.00 | 74 | 1014.2 |
| 20260510083559 | 16 | 321 | 4.8 | 8.0 | 0.00 | 0.00 | 0.00 | 75 | 1014.2 |
| 20260510083102 | 16 | 315 | 4.8 | 14.5 | 0.00 | 0.00 | 0.00 | 76 | 1014.0 |
| 20260510082556 | 16 | 55 | 8.0 | 12.9 | 0.00 | 0.00 | 0.00 | 75 | 1013.8 |
| 20260510082057 | 15 | 73 | 8.0 | 17.7 | 0.00 | 0.00 | 0.00 | 76 | 1013.8 |
| 20260510081601 | 15 | 36 | 4.8 | 20.9 | 0.00 | 0.00 | 0.00 | 77 | 1013.8 |
| 20260510081056 | 15 | 26 | 12.9 | 20.9 | 0.00 | 0.00 | 0.00 | 78 | 1013.8 |
| 20260510080556 | 15 | 27 | 16.1 | 20.9 | 0.00 | 0.00 | 0.00 | 79 | 1013.8 |
| 20260510080105 | 16 | 45 | 6.4 | 14.5 | 0.00 | 0.00 | 0.00 | 77 | 1013.6 |
| 20260510075555 | 16 | 42 | 0.0 | 0.0 | 0.00 | 0.00 | 0.00 | 77 | 1013.6 |
| 20260510075059 | 16 | 0 | 0.0 | 0.0 | 0.00 | 0.00 | 0.00 | 77 | 1013.4 |
| 20260510074558 | 16 | 0 | 0.0 | 0.0 | 0.00 | 0.00 | 0.00 | 78 | 1013.5 |
| 20260510074056 | 16 | 0 | 0.0 | 0.0 | 0.00 | 0.00 | 0.00 | 79 | 1013.6 |
| 20260510073556 | 16 | 0 | 0.0 | 0.0 | 0.00 | 0.00 | 0.00 | 79 | 1013.5 |
| 20260510073108 | 16 | 0 | 0.0 | 0.0 | 0.00 | 0.00 | 0.00 | 79 | 1013.4 |
| 20260510072556 | 16 | 0 | 0.0 | 0.0 | 0.00 | 0.00 | 0.00 | 77 | 1013.4 |
| 20260510072100 | 16 | 0 | 0.0 | 0.0 | 0.00 | 0.00 | 0.00 | 76 | 1013.3 |
| 20260510071600 | 16 | 0 | 0.0 | 0.0 | 0.00 | 0.00 | 0.00 | 75 | 1013.2 |
| 20260510071056 | 17 | 0 | 0.0 | 0.0 | 0.00 | 0.00 | 0.00 | 74 | 1013.2 |
| 20260510070556 | 17 | 0 | 0.0 | 1.6 | 0.00 | 0.00 | 0.00 | 73 | 1013.3 |
| 20260510070059 | 17 | 0 | 0.0 | 4.8 | 0.00 | 0.00 | 0.00 | 72 | 1013.2 |
| 20260510065558 | 17 | 0 | 0.0 | 8.0 | 0.00 | 0.00 | 0.00 | 71 | 1013.3 |
| 20260510065055 | 17 | 0 | 3.2 | 8.0 | 0.00 | 0.00 | 0.00 | 71 | 1013.3 |
| 20260510064556 | 17 | 148 | 4.8 | 6.4 | 0.00 | 0.00 | 0.00 | 70 | 1013.4 |
| 20260510064056 | 17 | 167 | 0.0 | 4.8 | 0.00 | 0.00 | 0.00 | 71 | 1013.4 |
| 20260510063556 | 17 | 0 | 0.0 | 3.2 | 0.00 | 0.00 | 0.00 | 72 | 1013.5 |
| 20260510063102 | 17 | 0 | 0.0 | 3.2 | 0.00 | 0.00 | 0.00 | 72 | 1013.5 |
| 20260510062555 | 17 | 233 | 1.6 | 4.8 | 0.00 | 0.00 | 0.00 | 73 | 1013.6 |
| 20260510062055 | 16 | 0 | 1.6 | 4.8 | 0.00 | 0.00 | 0.00 | 75 | 1013.6 |
| 20260510061606 | 16 | 255 | 0.0 | 4.8 | 0.00 | 0.00 | 0.00 | 78 | 1013.6 |
| 20260510061059 | 16 | 333 | 1.6 | 4.8 | 0.00 | 0.00 | 0.00 | 78 | 1013.7 |
| 20260510060556 | 16 | 333 | 1.6 | 4.8 | 0.00 | 0.00 | 0.00 | 76 | 1013.7 |
| 20260510060058 | 16 | 0 | 0.0 | 4.8 | 0.00 | 0.00 | 0.00 | 75 | 1013.7 |
| 20260510055556 | 17 | 112 | 1.6 | 4.8 | 0.00 | 0.00 | 0.00 | 74 | 1013.7 |
| 20260510055056 | 17 | 174 | 0.0 | 4.8 | 0.00 | 0.00 | 0.00 | 73 | 1013.8 |
| 20260510054606 | 17 | 140 | 0.0 | 4.8 | 0.00 | 0.00 | 0.00 | 72 | 1013.6 |
| 20260510054056 | 17 | 123 | 1.6 | 4.8 | 0.00 | 0.00 | 0.00 | 71 | 1013.6 |
| 20260510053556 | 18 | 136 | 1.6 | 8.0 | 0.00 | 0.00 | 0.00 | 69 | 1013.5 |
| 20260510053059 | 18 | 139 | 1.6 | 8.0 | 0.00 | 0.00 | 0.00 | 68 | 1013.5 |
| 20260510052557 | 18 | 149 | 3.2 | 6.4 | 0.00 | 0.00 | 0.00 | 66 | 1013.5 |
| 20260510052057 | 18 | 132 | 1.6 | 6.4 | 0.00 | 0.00 | 0.00 | 61 | 1013.4 |
| 20260510051555 | 18 | 0 | 0.0 | 0.0 | 0.00 | 0.00 | 0.00 | 65 | 1013.4 |
| 20260510051056 | 18 | 0 | 0.0 | 0.0 | 0.00 | 0.00 | 0.00 | 65 | 1013.4 |
| 20260510050555 | 18 | 0 | 0.0 | 0.0 | 0.00 | 0.00 | 0.00 | 65 | 1013.3 |
| 20260510050058 | 18 | 0 | 0.0 | 0.0 | 0.00 | 0.00 | 0.00 | 65 | 1013.2 |
| 20260510045556 | 19 | 0 | 0.0 | 0.0 | 0.00 | 0.00 | 0.00 | 63 | 1013.3 |
| 20260510045056 | 19 | 0 | 0.0 | 0.0 | 0.00 | 0.00 | 0.00 | 63 | 1013.2 |
| 20260510044556 | 20 | 0 | 0.0 | 4.8 | 0.00 | 0.00 | 0.00 | 62 | 1013.1 |
| 20260510044055 | 20 | 0 | 0.0 | 4.8 | 0.00 | 0.00 | 0.00 | 62 | 1013.0 |
| 20260510043556 | 20 | 123 | 0.0 | 4.8 | 0.00 | 0.00 | 0.00 | 61 | 1012.8 |
| 20260510043058 | 20 | 0 | 0.0 | 0.0 | 0.00 | 0.00 | 0.00 | 61 | 1013.0 |
| 20260510042600 | 20 | 0 | 0.0 | 0.0 | 0.00 | 0.00 | 0.00 | 61 | 1013.0 |
| 20260510042057 | 20 | 0 | 0.0 | 0.0 | 0.00 | 0.00 | 0.00 | 61 | 1012.9 |
| 20260510041635 | 20 | 0 | 0.0 | 0.0 | 0.00 | 0.00 | 0.00 | 60 | 1012.8 |
| 20260510041056 | 20 | 0 | 0.0 | 0.0 | 0.00 | 0.00 | 0.00 | 61 | 1012.7 |
| 20260510040556 | 20 | 0 | 0.0 | 0.0 | 0.00 | 0.00 | 0.00 | 60 | 1012.7 |
| 20260510040057 | 20 | 0 | 0.0 | 0.0 | 0.00 | 0.00 | 0.00 | 61 | 1012.5 |
| 20260510035556 | 20 | 0 | 0.0 | 1.6 | 0.00 | 0.00 | 0.00 | 61 | 1012.5 |
| 20260510035100 | 20 | 0 | 0.0 | 4.8 | 0.00 | 0.00 | 0.00 | 61 | 1012.6 |
| 20260510034559 | 21 | 0 | 0.0 | 4.8 | 0.00 | 0.00 | 0.00 | 61 | 1012.6 |
| 20260510034059 | 21 | 19 | 1.6 | 4.8 | 0.00 | 0.00 | 0.00 | 59 | 1012.6 |
| 20260510033556 | 21 | 19 | 1.6 | 4.8 | 0.00 | 0.00 | 0.00 | 59 | 1012.7 |
| 20260510033113 | 21 | 34 | 1.6 | 4.8 | 0.00 | 0.00 | 0.00 | 59 | 1012.3 |
| 20260510032556 | 21 | 49 | 0.0 | 3.2 | 0.00 | 0.00 | 0.00 | 59 | 1012.3 |
| 20260510032056 | 21 | 0 | 0.0 | 0.0 | 0.00 | 0.00 | 0.00 | 59 | 1012.3 |
| 20260510031602 | 21 | 0 | 0.0 | 0.0 | 0.00 | 0.00 | 0.00 | 59 | 1012.3 |
| 20260510031056 | 21 | 0 | 0.0 | 1.6 | 0.00 | 0.00 | 0.00 | 58 | 1012.2 |
| 20260510030558 | 21 | 0 | 0.0 | 3.2 | 0.00 | 0.00 | 0.00 | 58 | 1012.2 |
| 20260510030058 | 21 | 0 | 0.0 | 3.2 | 0.00 | 0.00 | 0.00 | 57 | 1012.2 |
| 20260510025556 | 21 | 0 | 0.0 | 3.2 | 0.00 | 0.00 | 0.00 | 57 | 1012.0 |
| 20260510025059 | 21 | 0 | 0.0 | 0.0 | 0.00 | 0.00 | 0.00 | 57 | 1011.9 |
| 20260510024610 | 21 | 0 | 0.0 | 0.0 | 0.00 | 0.00 | 0.00 | 57 | 1011.8 |
| 20260510024057 | 21 | 0 | 0.0 | 0.0 | 0.00 | 0.00 | 0.00 | 56 | 1011.7 |
| 20260510023556 | 22 | 0 | 0.0 | 3.2 | 0.00 | 0.00 | 0.00 | 56 | 1011.6 |
| 20260510023101 | 22 | 0 | 0.0 | 4.8 | 0.00 | 0.00 | 0.00 | 55 | 1011.4 |
| 20260510022556 | 22 | 111 | 1.6 | 9.7 | 0.00 | 0.00 | 0.00 | 54 | 1011.3 |
| 20260510022055 | 22 | 86 | 3.2 | 9.7 | 0.00 | 0.00 | 0.00 | 53 | 1011.2 |
| 20260510021557 | 23 | 103 | 4.8 | 9.7 | 0.00 | 0.00 | 0.00 | 51 | 1011.1 |
| 20260510021055 | 23 | 0 | 0.0 | 0.0 | 0.00 | 0.00 | 0.00 | 49 | 1011.0 |
| 20260510020557 | 23 | 0 | 0.0 | 3.2 | 0.00 | 0.00 | 0.00 | 49 | 1011.0 |
| 20260510020056 | 23 | 0 | 0.0 | 4.8 | 0.00 | 0.00 | 0.00 | 48 | 1010.8 |
| 20260510015600 | 23 | 0 | 1.6 | 6.4 | 0.00 | 0.00 | 0.00 | 48 | 1010.8 |
| 20260510015055 | 23 | 0 | 3.2 | 6.4 | 0.00 | 0.00 | 0.00 | 48 | 1010.7 |
| 20260510014613 | 23 | 192 | 3.2 | 6.4 | 0.00 | 0.00 | 0.00 | 47 | 1010.7 |
| 20260510014056 | 24 | 178 | 3.2 | 8.0 | 0.00 | 0.00 | 0.00 | 46 | 1010.5 |
| 20260510013557 | 24 | 178 | 3.2 | 8.0 | 0.00 | 0.00 | 0.00 | 45 | 1010.4 |
| 20260510013104 | 24 | 210 | 4.8 | 8.0 | 0.00 | 0.00 | 0.00 | 44 | 1010.4 |
| 20260510012556 | 24 | 244 | 4.8 | 6.4 | 0.00 | 0.00 | 0.00 | 44 | 1010.4 |
| 20260510012056 | 24 | 236 | 3.2 | 6.4 | 0.00 | 0.00 | 0.00 | 44 | 1010.4 |
| 20260510011557 | 25 | 242 | 3.2 | 6.4 | 0.00 | 0.00 | 0.00 | 44 | 1010.3 |
| 20260510011055 | 25 | 238 | 3.2 | 6.4 | 0.00 | 0.00 | 0.00 | 44 | 1010.2 |
| 20260510010556 | 25 | 240 | 4.8 | 8.0 | 0.00 | 0.00 | 0.00 | 44 | 1010.2 |
| 20260510010111 | 25 | 242 | 4.8 | 8.0 | 0.00 | 0.00 | 0.00 | 43 | 1010.5 |
| 20260510005556 | 25 | 248 | 4.8 | 11.3 | 0.00 | 0.00 | 0.00 | 43 | 1010.4 |
| 20260510005055 | 25 | 238 | 6.4 | 11.3 | 0.00 | 0.00 | 0.00 | 42 | 1010.3 |
| 20260510004605 | 25 | 239 | 6.4 | 11.3 | 0.00 | 0.00 | 0.00 | 41 | 1010.3 |
| 20260510004055 | 26 | 262 | 4.8 | 6.4 | 0.00 | 0.00 | 0.00 | 41 | 1009.8 |
| 20260510003556 | 26 | 244 | 3.2 | 6.4 | 0.00 | 0.00 | 0.00 | 39 | 1009.8 |
| 20260510003103 | 26 | 257 | 3.2 | 6.4 | 0.00 | 0.00 | 0.00 | 40 | 1009.7 |
| 20260510002558 | 26 | 232 | 3.2 | 8.0 | 0.00 | 0.00 | 0.00 | 40 | 1009.7 |
| 20260510002055 | 26 | 234 | 4.8 | 8.0 | 0.00 | 0.00 | 0.00 | 40 | 1009.7 |
| 20260510001558 | 26 | 244 | 3.2 | 8.0 | 0.00 | 0.00 | 0.00 | 39 | 1009.7 |
| 20260510001056 | 26 | 225 | 3.2 | 9.7 | 0.00 | 0.00 | 0.00 | 39 | 1009.8 |
| 20260510000558 | 26 | 222 | 6.4 | 9.7 | 0.00 | 0.00 | 0.00 | 40 | 1009.8 |
| 20260510000058 | 26 | 236 | 4.8 | 9.7 | 0.00 | 0.00 | 0.00 | 40 | 1009.7 |
| 20260509235559 | 27 | 205 | 3.2 | 9.7 | 0.00 | 0.00 | 0.00 | 38 | 1009.8 |
| 20260509235059 | 27 | 232 | 3.2 | 9.7 | 0.00 | 0.00 | 0.00 | 39 | 1009.8 |
| 20260509234557 | 27 | 232 | 4.8 | 12.9 | 0.00 | 0.00 | 0.00 | 38 | 1009.9 |
| 20260509234055 | 27 | 226 | 4.8 | 14.5 | 0.00 | 0.00 | 0.00 | 36 | 1009.9 |
| 20260509233557 | 27 | 221 | 6.4 | 14.5 | 0.00 | 0.00 | 0.00 | 36 | 1009.9 |
| 20260509233112 | 27 | 246 | 6.4 | 12.9 | 0.00 | 0.00 | 0.00 | 36 | 1009.9 |
| 20260509232557 | 27 | 221 | 4.8 | 9.7 | 0.00 | 0.00 | 0.00 | 35 | 1009.8 |
| 20260509232056 | 27 | 258 | 3.2 | 8.0 | 0.00 | 0.00 | 0.00 | 34 | 1009.9 |
| 20260509231610 | 28 | 290 | 0.0 | 4.8 | 0.00 | 0.00 | 0.00 | 37 | 1009.9 |
| 20260509231056 | 27 | 0 | 0.0 | 4.8 | 0.00 | 0.00 | 0.00 | 34 | 1009.9 |
| 20260509230559 | 27 | 105 | 1.6 | 6.4 | 0.00 | 0.00 | 0.00 | 34 | 1009.8 |
| 20260509230108 | 28 | 131 | 1.6 | 6.4 | 0.00 | 0.00 | 0.00 | 34 | 1009.9 |
| 20260509225556 | 27 | 109 | 0.0 | 3.2 | 0.00 | 0.00 | 0.00 | 35 | 1009.8 |
| 20260509225056 | 27 | 0 | 0.0 | 8.0 | 0.00 | 0.00 | 0.00 | 36 | 1009.8 |
| 20260509224608 | 27 | 171 | 1.6 | 9.7 | 0.00 | 0.00 | 0.00 | 39 | 1009.8 |
| 20260509224056 | 27 | 185 | 4.8 | 9.7 | 0.00 | 0.00 | 0.00 | 39 | 1009.7 |
| 20260509223556 | 27 | 171 | 3.2 | 9.7 | 0.00 | 0.00 | 0.00 | 38 | 1009.7 |
| 20260509223103 | 27 | 107 | 3.2 | 8.0 | 0.00 | 0.00 | 0.00 | 38 | 1009.7 |
| 20260509222559 | 26 | 182 | 0.0 | 8.0 | 0.00 | 0.00 | 0.00 | 38 | 1009.7 |
| 20260509222056 | 26 | 130 | 1.6 | 8.0 | 0.00 | 0.00 | 0.00 | 39 | 1009.8 |
| 20260509221600 | 26 | 169 | 3.2 | 14.5 | 0.00 | 0.00 | 0.00 | 41 | 1009.7 |
| 20260509221056 | 26 | 159 | 6.4 | 14.5 | 0.00 | 0.00 | 0.00 | 39 | 1009.8 |
| 20260509220555 | 26 | 169 | 6.4 | 14.5 | 0.00 | 0.00 | 0.00 | 39 | 1009.8 |
| 20260509215559 | 26 | 189 | 3.2 | 11.3 | 0.00 | 0.00 | 0.00 | 39 | 1009.8 |
| 20260509215056 | 26 | 200 | 4.8 | 14.5 | 0.00 | 0.00 | 0.00 | 39 | 1009.8 |
| 20260509214558 | 26 | 192 | 6.4 | 16.1 | 0.00 | 0.00 | 0.00 | 37 | 1009.9 |
| 20260509214056 | 27 | 222 | 9.7 | 16.1 | 0.00 | 0.00 | 0.00 | 37 | 1009.8 |
| 20260509213556 | 28 | 180 | 6.4 | 14.5 | 0.00 | 0.00 | 0.00 | 36 | 1009.8 |
| 20260509213059 | 28 | 153 | 4.8 | 14.5 | 0.00 | 0.00 | 0.00 | 36 | 1009.8 |
| 20260509212555 | 28 | 146 | 4.8 | 14.5 | 0.00 | 0.00 | 0.00 | 34 | 1009.8 |
| 20260509212055 | 28 | 155 | 8.0 | 14.5 | 0.00 | 0.00 | 0.00 | 33 | 1010.1 |
| 20260509211601 | 28 | 175 | 3.2 | 9.7 | 0.00 | 0.00 | 0.00 | 31 | 1010.0 |
| 20260509211056 | 28 | 167 | 0.0 | 11.3 | 0.00 | 0.00 | 0.00 | 31 | 1010.1 |
| 20260509210556 | 28 | 140 | 3.2 | 11.3 | 0.00 | 0.00 | 0.00 | 33 | 1010.1 |
| 20260509210105 | 27 | 215 | 4.8 | 11.3 | 0.00 | 0.00 | 0.00 | 33 | 1010.0 |
| 20260509205556 | 27 | 143 | 1.6 | 8.0 | 0.00 | 0.00 | 0.00 | 35 | 1010.2 |
| 20260509205056 | 27 | 149 | 1.6 | 8.0 | 0.00 | 0.00 | 0.00 | 34 | 1010.2 |
| 20260509204554 | 27 | 247 | 1.6 | 8.0 | 0.00 | 0.00 | 0.00 | 32 | 1010.2 |
| 20260509204056 | 27 | 212 | 4.8 | 8.0 | 0.00 | 0.00 | 0.00 | 32 | 1010.3 |
| 20260509203602 | 27 | 186 | 3.2 | 8.0 | 0.00 | 0.00 | 0.00 | 32 | 1010.2 |
| 20260509203059 | 26 | 0 | 4.8 | 8.0 | 0.00 | 0.00 | 0.00 | 31 | 1010.3 |
| 20260509202558 | 26 | 319 | 4.8 | 14.5 | 0.00 | 0.00 | 0.00 | 32 | 1010.5 |
| 20260509202056 | 27 | 319 | 3.2 | 14.5 | 0.00 | 0.00 | 0.00 | 34 | 1010.5 |
| 20260509201555 | 27 | 351 | 6.4 | 14.5 | 0.00 | 0.00 | 0.00 | 33 | 1010.5 |
| 20260509201055 | 27 | 333 | 1.6 | 14.5 | 0.00 | 0.00 | 0.00 | 33 | 1010.6 |
| 20260509200555 | 27 | 84 | 6.4 | 17.7 | 0.00 | 0.00 | 0.00 | 34 | 1010.7 |
| 20260509200057 | 27 | 153 | 4.8 | 17.7 | 0.00 | 0.00 | 0.00 | 35 | 1010.7 |
| 20260509195556 | 27 | 68 | 8.0 | 17.7 | 0.00 | 0.00 | 0.00 | 33 | 1010.8 |
| 20260509195055 | 27 | 349 | 8.0 | 16.1 | 0.00 | 0.00 | 0.00 | 35 | 1010.8 |
| 20260509194558 | 27 | 321 | 1.6 | 17.7 | 0.00 | 0.00 | 0.00 | 36 | 1010.9 |
| 20260509194055 | 26 | 355 | 4.8 | 17.7 | 0.00 | 0.00 | 0.00 | 35 | 1010.9 |
| 20260509193556 | 26 | 321 | 8.0 | 19.3 | 0.00 | 0.00 | 0.00 | 36 | 1010.9 |
| 20260509193057 | 27 | 298 | 14.5 | 19.3 | 0.00 | 0.00 | 0.00 | 35 | 1010.9 |
| 20260509192600 | 27 | 300 | 3.2 | 12.9 | 0.00 | 0.00 | 0.00 | 37 | 1011.0 |
| 20260509192056 | 26 | 208 | 4.8 | 12.9 | 0.00 | 0.00 | 0.00 | 36 | 1011.1 |
| 20260509191554 | 26 | 334 | 6.4 | 19.3 | 0.00 | 0.00 | 0.00 | 36 | 1011.1 |
| 20260509191056 | 26 | 200 | 8.0 | 19.3 | 0.00 | 0.00 | 0.00 | 38 | 1011.1 |
| 20260509190555 | 26 | 332 | 6.4 | 17.7 | 0.00 | 0.00 | 0.00 | 36 | 1011.0 |
| 20260509190056 | 27 | 324 | 9.7 | 17.7 | 0.00 | 0.00 | 0.00 | 35 | 1011.1 |
| 20260509185557 | 27 | 0 | 1.6 | 8.0 | 0.00 | 0.00 | 0.00 | 36 | 1010.9 |
| 20260509185056 | 27 | 59 | 1.6 | 8.0 | 0.00 | 0.00 | 0.00 | 34 | 1010.8 |
| 20260509184556 | 26 | 0 | 1.6 | 17.7 | 0.00 | 0.00 | 0.00 | 34 | 1011.0 |
| 20260509184056 | 26 | 360 | 6.4 | 20.9 | 0.00 | 0.00 | 0.00 | 33 | 1011.1 |
| 20260509183556 | 26 | 233 | 9.7 | 20.9 | 0.00 | 0.00 | 0.00 | 35 | 1011.1 |
| 20260509183057 | 26 | 352 | 12.9 | 20.9 | 0.00 | 0.00 | 0.00 | 38 | 1011.1 |
| 20260509182555 | 26 | 294 | 14.5 | 20.9 | 0.00 | 0.00 | 0.00 | 36 | 1011.1 |
| 20260509182056 | 26 | 290 | 9.7 | 17.7 | 0.00 | 0.00 | 0.00 | 42 | 1011.0 |
| 20260509181557 | 26 | 279 | 8.0 | 16.1 | 0.00 | 0.00 | 0.00 | 43 | 1011.1 |
| 20260509181056 | 26 | 165 | 6.4 | 14.5 | 0.00 | 0.00 | 0.00 | 43 | 1011.0 |
| 20260509180556 | 26 | 167 | 6.4 | 16.1 | 0.00 | 0.00 | 0.00 | 46 | 1010.8 |
| 20260509180100 | 26 | 0 | 4.8 | 16.1 | 0.00 | 0.00 | 0.00 | 46 | 1010.9 |
| 20260509175558 | 25 | 266 | 4.8 | 17.7 | 0.00 | 0.00 | 0.00 | 48 | 1011.1 |
| 20260509175056 | 26 | 329 | 9.7 | 22.5 | 0.00 | 0.00 | 0.00 | 47 | 1011.2 |
| 20260509174556 | 26 | 207 | 8.0 | 22.5 | 0.00 | 0.00 | 0.00 | 48 | 1011.0 |
| 20260509174056 | 25 | 169 | 9.7 | 20.9 | 0.00 | 0.00 | 0.00 | 49 | 1011.0 |
| 20260509173555 | 26 | 128 | 6.4 | 19.3 | 0.00 | 0.00 | 0.00 | 46 | 1011.0 |
| 20260509173118 | 26 | 192 | 8.0 | 22.5 | 0.00 | 0.00 | 0.00 | 50 | 1011.1 |
| 20260509172556 | 26 | 238 | 6.4 | 22.5 | 0.00 | 0.00 | 0.00 | 47 | 1011.2 |
| 20260509172056 | 25 | 163 | 3.2 | 17.7 | 0.00 | 0.00 | 0.00 | 50 | 1011.2 |
| 20260509171555 | 25 | 220 | 8.0 | 17.7 | 0.00 | 0.00 | 0.00 | 52 | 1011.2 |
| 20260509171056 | 25 | 162 | 6.4 | 19.3 | 0.00 | 0.00 | 0.00 | 55 | 1011.2 |
| 20260509170558 | 24 | 155 | 9.7 | 20.9 | 0.00 | 0.00 | 0.00 | 56 | 1011.2 |
| 20260509170112 | 24 | 244 | 11.3 | 22.5 | 0.00 | 0.00 | 0.00 | 57 | 1011.2 |
| 20260509165556 | 24 | 184 | 11.3 | 22.5 | 0.00 | 0.00 | 0.00 | 56 | 1011.3 |
| 20260509165056 | 25 | 197 | 8.0 | 20.9 | 0.00 | 0.00 | 0.00 | 60 | 1011.4 |
| 20260509164602 | 25 | 184 | 6.4 | 20.9 | 0.00 | 0.00 | 0.00 | 57 | 1011.3 |
| 20260509164056 | 25 | 211 | 6.4 | 14.5 | 0.00 | 0.00 | 0.00 | 58 | 1011.3 |
| 20260509163556 | 24 | 213 | 3.2 | 17.7 | 0.00 | 0.00 | 0.00 | 60 | 1011.4 |
| 20260509163058 | 23 | 176 | 9.7 | 17.7 | 0.00 | 0.00 | 0.00 | 59 | 1011.3 |
| 20260509162556 | 23 | 205 | 8.0 | 20.9 | 0.00 | 0.00 | 0.00 | 59 | 1011.5 |
| 20260509162100 | 23 | 186 | 8.0 | 20.9 | 0.00 | 0.00 | 0.00 | 61 | 1011.4 |
| 20260509161556 | 23 | 169 | 4.8 | 14.5 | 0.00 | 0.00 | 0.00 | 62 | 1011.4 |
| 20260509161055 | 23 | 234 | 6.4 | 14.5 | 0.00 | 0.00 | 0.00 | 56 | 1011.5 |
| 20260509160556 | 23 | 243 | 4.8 | 14.5 | 0.00 | 0.00 | 0.00 | 58 | 1011.5 |
| 20260509160057 | 23 | 242 | 8.0 | 16.1 | 0.00 | 0.00 | 0.00 | 57 | 1011.4 |
| 20260509155556 | 22 | 0 | 6.4 | 16.1 | 0.00 | 0.00 | 0.00 | 60 | 1011.3 |
| 20260509155055 | 22 | 191 | 8.0 | 16.1 | 0.00 | 0.00 | 0.00 | 60 | 1011.4 |
| 20260509154603 | 22 | 172 | 4.8 | 12.9 | 0.00 | 0.00 | 0.00 | 61 | 1011.4 |
| 20260509154056 | 22 | 215 | 4.8 | 12.9 | 0.00 | 0.00 | 0.00 | 60 | 1011.4 |
| 20260509153607 | 22 | 219 | 3.2 | 8.0 | 0.00 | 0.00 | 0.00 | 62 | 1011.4 |
| 20260509153056 | 22 | 228 | 3.2 | 8.0 | 0.00 | 0.00 | 0.00 | 64 | 1011.3 |
| 20260509152556 | 22 | 0 | 3.2 | 8.0 | 0.00 | 0.00 | 0.00 | 66 | 1011.3 |
| 20260509152056 | 21 | 260 | 0.0 | 8.0 | 0.00 | 0.00 | 0.00 | 68 | 1011.3 |
| 20260509151615 | 21 | 193 | 1.6 | 8.0 | 0.00 | 0.00 | 0.00 | 69 | 1011.3 |
| 20260509151056 | 21 | 221 | 0.0 | 8.0 | 0.00 | 0.00 | 0.00 | 69 | 1011.3 |
| 20260509150556 | 20 | 244 | 0.0 | 8.0 | 0.00 | 0.00 | 0.00 | 70 | 1011.3 |
| 20260509150058 | 20 | 0 | 3.2 | 11.3 | 0.00 | 0.00 | 0.00 | 72 | 1011.4 |
| 20260509145556 | 20 | 0 | 1.6 | 11.3 | 0.00 | 0.00 | 0.00 | 73 | 1011.5 |
| 20260509145055 | 19 | 228 | 4.8 | 14.5 | 0.00 | 0.00 | 0.00 | 74 | 1011.5 |
| 20260509144558 | 19 | 271 | 6.4 | 14.5 | 0.00 | 0.00 | 0.00 | 75 | 1011.6 |
| 20260509144056 | 19 | 259 | 4.8 | 9.7 | 0.00 | 0.00 | 0.00 | 75 | 1011.6 |
| 20260509143556 | 19 | 262 | 3.2 | 11.3 | 0.00 | 0.00 | 0.00 | 77 | 1011.5 |
| 20260509143106 | 18 | 0 | 3.2 | 11.3 | 0.00 | 0.00 | 0.00 | 77 | 1011.5 |
| 20260509142556 | 18 | 0 | 4.8 | 11.3 | 0.00 | 0.00 | 0.00 | 78 | 1011.6 |
| 20260509142058 | 18 | 229 | 3.2 | 6.4 | 0.00 | 0.00 | 0.00 | 80 | 1011.4 |
| 20260509141600 | 17 | 0 | 0.0 | 12.9 | 0.00 | 0.00 | 0.00 | 80 | 1011.4 |
| 20260509141057 | 17 | 290 | 4.8 | 12.9 | 0.00 | 0.00 | 0.00 | 81 | 1011.4 |
| 20260509140556 | 17 | 152 | 4.8 | 11.3 | 0.00 | 0.00 | 0.00 | 81 | 1011.4 |
| 20260509140055 | 17 | 251 | 4.8 | 11.3 | 0.00 | 0.00 | 0.00 | 82 | 1011.3 |
| 20260509135556 | 16 | 252 | 4.8 | 12.9 | 0.00 | 0.00 | 0.00 | 83 | 1011.4 |
| 20260509135058 | 16 | 261 | 4.8 | 16.1 | 0.00 | 0.00 | 0.00 | 83 | 1011.4 |
| 20260509134600 | 16 | 243 | 8.0 | 16.1 | 0.00 | 0.00 | 0.00 | 83 | 1011.7 |
| 20260509134057 | 16 | 230 | 6.4 | 12.9 | 0.00 | 0.00 | 0.00 | 83 | 1011.6 |
| 20260509133557 | 16 | 238 | 3.2 | 11.3 | 0.00 | 0.00 | 0.00 | 84 | 1011.6 |
| 20260509133105 | 16 | 217 | 4.8 | 11.3 | 0.00 | 0.00 | 0.00 | 84 | 1011.6 |
| 20260509132556 | 16 | 198 | 3.2 | 11.3 | 0.00 | 0.00 | 0.00 | 85 | 1011.6 |
| 20260509132057 | 15 | 201 | 6.4 | 11.3 | 0.00 | 0.00 | 0.00 | 85 | 1011.5 |
| 20260509131605 | 15 | 201 | 6.4 | 9.7 | 0.00 | 0.00 | 0.00 | 85 | 1011.3 |
| 20260509131056 | 15 | 227 | 4.8 | 9.7 | 0.00 | 0.00 | 0.00 | 85 | 1011.3 |
| 20260509130557 | 15 | 194 | 1.6 | 6.4 | 0.00 | 0.00 | 0.00 | 85 | 1011.4 |
| 20260509130127 | 15 | 178 | 3.2 | 6.4 | 0.00 | 0.00 | 0.00 | 86 | 1011.2 |
| 20260509125556 | 15 | 180 | 3.2 | 9.7 | 0.00 | 0.00 | 0.00 | 86 | 1011.3 |
| 20260509125055 | 14 | 213 | 3.2 | 9.7 | 0.00 | 0.00 | 0.00 | 86 | 1011.2 |
| 20260509124602 | 14 | 200 | 1.6 | 9.7 | 0.00 | 0.00 | 0.00 | 85 | 1011.1 |
| 20260509124055 | 14 | 163 | 4.8 | 9.7 | 0.00 | 0.00 | 0.00 | 84 | 1011.2 |
| 20260509123557 | 15 | 179 | 3.2 | 6.4 | 0.00 | 0.00 | 0.00 | 83 | 1011.2 |
| 20260509123123 | 15 | 159 | 0.0 | 0.0 | 0.00 | 0.00 | 0.00 | 83 | 1011.2 |
| 20260509122558 | 15 | 0 | 0.0 | 1.6 | 0.00 | 0.00 | 0.00 | 83 | 1011.2 |
| 20260509122056 | 14 | 0 | 0.0 | 1.6 | 0.00 | 0.00 | 0.00 | 84 | 1011.1 |
| 20260509121556 | 14 | 0 | 0.0 | 1.6 | 0.00 | 0.00 | 0.00 | 84 | 1011.0 |
| 20260509121056 | 14 | 0 | 0.0 | 0.0 | 0.00 | 0.00 | 0.00 | 85 | 1010.9 |